{"data":{"norad_id":41174,"epoch":"2026-05-23T23:43:45.984288Z","epoch_age_seconds":173075,"freshness":"STALE","line1":"1 41174U 15079A   26143.98872667  .00000018  00000+0  00000+0 0  9995","line2":"2 41174  55.8138 101.9249 0005590 335.9950  23.9396  1.70473875 64361","mean_motion":1.70473875,"eccentricity":0.000559,"inclination_deg":55.8138,"raan_deg":101.9249,"arg_perigee_deg":335.995,"mean_anomaly_deg":23.9396,"bstar":0,"rev_number":6436,"period_min":844.70421054252,"perigee_km":23205.650940189,"apogee_km":23238.744114191,"semimajor_km":29600.33452719,"source":"CELESTRAK","updated_at":"2026-05-25T13:38:24.055186Z"}}